Back to catalog

STARLINK-30399

AliveCommunicationsVLEO
NORAD 57951·PAYLOAD·🇺🇸 United States

Launched Sep 25, 2023 from Vandenberg Space Force Base

Loading…

Next Passes (next 24 hours)

TLE

FreshSource: CelesTrak SupGP

Epoch: Sep 14, 2026, 13:46 UTC

1 57951C 23148S   26257.57409722 -.00026548  00000+0 -78472-3 0  2577
2 57951  53.1584 223.1924 0001405  82.0707 287.9806 15.34389220    10

Track STARLINK-30399 in real time with AllMySat

Download on the App Store